Date String (YYYY-MM-DD hh:mm:ss) UTC,Instrument flags,absolute air pressure of the measurement (hPa),sample flow rate (lpm),inlet stack bypass flow (lpm),air temperature of the measurement (°C),ambient temperature measured by the external sensor (°C),aerosol sample conditioner tube jacket temperature (°C),OPC LED temperature (°C),internal box temperature (°C),relative humidity of the measurement (%),span deviation,mass concentration of particles derived from Lorenz-Mie calculation of OPC scattering (μg/m³),mass concentration of particles derived from Lorenz-Mie calculation of OPC scattering (μg/m³),mass concentration of particles derived from Lorenz-Mie calculation of OPC scattering (μg/m³)
DateTimeUTC,F1_M11,P_M11,Q1_M11,Q2_M11,T1_M11,T2_M11,T3_M11,T4_M11,T5_M11,U1_M11,ZSPAN_M11,X0_M11,X2_M11,X1_M11
2023-09-06 20:00:00,SystemResetWarning,0832.6,4.99,000.00,027.7,024.9,000.0,036.0,029.2,28.8,0002.5,0028.55,0016.07,0014.85
2023-09-06 20:01:00,SystemResetWarning,0832.6,4.99,000.00,027.7,025.4,000.0,036.0,029.3,28.7,0002.4,0029.25,0015.96,0014.74
2023-09-06 20:02:00,SystemResetWarning,0832.6,5.00,000.00,027.7,025.8,000.0,036.1,029.4,28.6,0002.4,0029.49,0015.87,0014.61
2023-09-06 20:03:00,SystemResetWarning,0832.7,5.00,000.00,027.8,026.1,000.0,036.1,029.5,28.9,0002.4,0029.38,0015.77,0014.57
2023-09-06 20:04:00,SystemResetWarning,0832.6,5.01,000.00,027.8,026.4,000.0,036.1,029.6,28.9,0002.5,0029.01,0015.69,0014.54
2023-09-06 20:05:00,SystemResetWarning,0832.6,5.01,000.00,027.9,026.7,000.0,036.1,029.7,29.0,0002.5,0028.68,0015.66,0014.57
2023-09-06 20:06:00,SystemResetWarning,0832.6,5.00,000.00,027.9,026.9,000.0,036.2,029.7,27.8,0002.6,0027.97,0015.65,0014.55
2023-09-06 20:07:00,SystemResetWarning,0832.6,4.99,000.00,028.0,026.3,000.0,036.2,029.6,27.9,0002.5,0028.60,0015.71,0014.56
2023-09-06 20:08:00,SystemResetWarning,0832.6,5.00,000.00,027.9,024.8,000.0,036.1,029.1,27.5,0002.4,0027.21,0015.71,0014.60
2023-09-06 20:09:00,SystemResetWarning,0832.5,5.01,000.00,027.8,024.3,000.0,036.0,029.0,27.7,0002.3,0027.96,0015.75,0014.64
2023-09-06 20:10:00,SystemResetWarning,0832.5,5.01,000.00,027.7,024.5,000.0,036.0,029.1,27.5,0002.2,0029.92,0015.80,0014.68
2023-09-06 20:11:00,SystemResetWarning,0832.5,5.00,000.00,027.7,024.9,000.0,036.0,029.1,27.2,0002.4,0030.65,0015.81,0014.73
2023-09-06 20:12:00,SystemResetWarning,0832.5,5.00,000.00,027.7,025.3,000.0,036.0,029.2,27.9,0002.5,0029.84,0015.92,0014.80
2023-09-06 20:13:00,SystemResetWarning,0832.5,5.00,000.00,027.7,025.7,000.0,036.1,029.4,27.6,0002.4,0029.81,0016.05,0014.91
2023-09-06 20:14:00,SystemResetWarning,0832.5,5.00,000.00,027.8,026.0,000.0,036.1,029.4,27.7,0002.4,0031.24,0016.15,0014.91
2023-09-06 20:15:00,SystemResetWarning,0832.5,5.00,000.00,027.8,026.4,000.0,036.1,029.5,27.4,0002.5,0031.70,0016.17,0014.88
2023-09-06 20:16:00,SystemResetWarning,0832.5,5.00,000.00,027.9,026.6,000.0,036.1,029.6,27.7,0002.5,0031.57,0016.15,0014.84
2023-09-06 20:17:00,SystemResetWarning,0832.5,5.00,000.00,027.9,026.9,000.0,036.2,029.7,28.5,0002.4,0031.16,0016.15,0014.84
2023-09-06 20:18:00,SystemResetWarning,0832.5,4.99,000.00,028.0,026.6,000.0,036.2,029.7,28.3,0002.4,0031.06,0016.14,0014.84
2023-09-06 20:19:00,SystemResetWarning,0832.5,5.00,000.00,027.9,025.1,000.0,036.1,029.2,28.2,0002.5,0030.55,0016.13,0014.83
2023-09-06 20:20:00,SystemResetWarning,0832.5,5.01,000.00,027.8,024.3,000.0,036.0,029.0,28.7,0002.6,0030.47,0016.16,0014.85
2023-09-06 20:21:00,SystemResetWarning,0832.5,5.00,000.00,027.7,024.4,000.0,036.0,029.0,29.0,0002.6,0028.56,0016.19,0014.88
2023-09-06 20:22:00,SystemResetWarning,0832.5,5.00,000.00,027.7,024.8,000.0,036.0,029.1,28.6,0002.6,0027.24,0016.23,0014.88
2023-09-06 20:23:00,SystemResetWarning,0832.5,5.00,000.00,027.7,025.2,000.0,036.0,029.2,28.5,0002.5,0027.08,0016.23,0014.88
2023-09-06 20:24:00,SystemResetWarning,0832.5,5.01,000.00,027.7,025.6,000.0,036.1,029.3,29.2,0002.4,0027.87,0016.25,0014.90
2023-09-06 20:25:00,SystemResetWarning,0832.5,5.00,000.00,027.7,025.9,000.0,036.1,029.4,29.3,0002.5,0027.43,0016.31,0014.96
2023-09-06 20:26:00,SystemResetWarning,0832.4,5.00,000.00,027.8,026.3,000.0,036.1,029.5,29.3,0002.5,0027.25,0016.39,0015.05
2023-09-06 20:27:00,SystemResetWarning,0832.4,5.00,000.00,027.9,026.6,000.0,036.1,029.6,29.3,0002.5,0027.96,0016.46,0015.09
2023-09-06 20:28:00,SystemResetWarning,0832.4,5.01,000.00,027.9,026.8,000.0,036.1,029.7,29.2,0002.4,0029.33,0016.54,0015.11
2023-09-06 20:29:00,SystemResetWarning,0832.4,4.99,000.00,028.0,027.0,000.0,036.2,029.8,28.4,0002.4,0029.38,0016.54,0015.13
2023-09-06 20:30:00,SystemResetWarning,0832.4,4.98,000.00,028.0,026.3,000.0,036.2,029.6,28.6,0002.4,0029.72,0016.56,0015.18
2023-09-06 20:31:00,SystemResetWarning,0832.3,5.01,000.00,027.9,024.8,000.0,036.1,029.2,28.0,0002.3,0031.84,0016.63,0015.22
2023-09-06 20:32:00,SystemResetWarning,0832.3,5.01,000.00,027.8,024.4,000.0,036.1,029.1,28.4,0002.3,0031.65,0016.72,0015.30
2023-09-06 20:33:00,SystemResetWarning,0832.3,5.01,000.00,027.8,024.7,000.0,036.1,029.2,28.5,0002.2,0032.04,0016.83,0015.34
2023-09-06 20:34:00,SystemResetWarning,0832.3,5.00,000.00,027.7,025.1,000.0,036.1,029.2,28.0,0002.2,0032.84,0016.85,0015.40
2023-09-06 20:35:00,SystemResetWarning,0832.4,5.00,000.00,027.8,025.5,000.0,036.1,029.4,28.2,0002.3,0032.89,0016.89,0015.43
2023-09-06 20:36:00,SystemResetWarning,0832.3,5.00,000.00,027.8,025.9,000.0,036.1,029.5,28.5,0002.4,0032.64,0016.90,0015.44
2023-09-06 20:37:00,SystemResetWarning,0832.3,5.00,000.00,027.9,026.3,000.0,036.1,029.6,28.6,0002.3,0033.27,0016.94,0015.47
2023-09-06 20:38:00,SystemResetWarning,0832.3,5.00,000.00,027.9,026.7,000.0,036.2,029.7,28.6,0002.4,0034.09,0016.98,0015.50
2023-09-06 20:39:00,SystemResetWarning,0832.3,4.99,000.00,028.0,026.8,000.0,036.2,029.8,28.2,0002.4,0033.19,0016.96,0015.55
2023-09-06 20:40:00,SystemResetWarning,0832.3,4.99,000.00,028.0,025.7,000.0,036.1,029.4,28.2,0002.6,0033.42,0017.01,0015.55
2023-09-06 20:41:00,SystemResetWarning,0832.2,5.01,000.00,027.8,024.6,000.0,036.1,029.1,27.9,0002.5,0033.51,0017.04,0015.55
2023-09-06 20:42:00,SystemResetWarning,0832.2,5.01,000.00,027.8,024.5,000.0,036.0,029.1,27.4,0002.5,0031.52,0017.02,0015.50
2023-09-06 20:43:00,SystemResetWarning,0832.2,5.00,000.00,027.7,024.9,000.0,036.0,029.2,27.9,0002.4,0031.55,0016.95,0015.41
2023-09-06 20:44:00,SystemResetWarning,0832.2,5.00,000.00,027.8,025.3,000.0,036.1,029.3,28.1,0002.4,0031.64,0016.83,0015.33
2023-09-06 20:45:00,SystemResetWarning,0832.2,5.00,000.00,027.8,025.8,000.0,036.1,029.5,28.1,0002.3,0031.24,0016.74,0015.24
2023-09-06 20:46:00,SystemResetWarning,0832.2,5.00,000.00,027.9,026.2,000.0,036.1,029.6,27.9,0002.2,0031.70,0016.68,0015.18
2023-09-06 20:47:00,SystemResetWarning,0832.2,5.00,000.00,027.9,026.6,000.0,036.1,029.7,26.8,0002.1,0031.80,0016.61,0015.08
2023-09-06 20:48:00,SystemResetWarning,0832.2,4.98,000.00,028.0,026.3,000.0,036.1,029.6,27.2,0002.0,0031.19,0016.58,0014.99
2023-09-06 20:49:00,SystemResetWarning,0832.2,5.00,000.00,027.9,024.9,000.0,036.1,029.2,28.2,0002.1,0030.87,0016.53,0014.93
2023-09-06 20:50:00,SystemResetWarning,0832.1,5.01,000.00,027.8,024.4,000.0,036.0,029.1,28.1,0002.2,0031.27,0016.47,0014.84
2023-09-06 20:51:00,SystemResetWarning,0832.1,5.01,000.00,027.7,024.6,000.0,036.0,029.1,28.5,0002.1,0031.19,0016.47,0014.84
2023-09-06 20:52:00,SystemResetWarning,0832.1,5.00,000.00,027.7,025.0,000.0,036.0,029.2,28.5,0002.1,0031.17,0016.45,0014.83
2023-09-06 20:53:00,SystemResetWarning,0832.1,5.00,000.00,027.7,025.5,000.0,036.0,029.4,28.8,0002.1,0032.19,0016.43,0014.83
2023-09-06 20:54:00,SystemResetWarning,0832.1,5.00,000.00,027.8,026.0,000.0,036.1,029.5,29.0,0002.1,0032.68,0016.45,0014.85
2023-09-06 20:55:00,SystemResetWarning,0832.1,4.99,000.00,027.9,026.4,000.0,036.1,029.7,29.1,0002.2,0032.85,0016.50,0014.89
2023-09-06 20:56:00,SystemResetWarning,0832.1,4.99,000.00,027.9,026.6,000.0,036.1,029.7,28.7,0002.4,0033.64,0016.61,0014.95
2023-09-06 20:57:00,SystemResetWarning,0832.0,4.98,000.00,027.9,025.6,000.0,036.1,029.4,28.7,0002.4,0033.73,0016.68,0014.98
2023-09-06 20:58:00,SystemResetWarning,0832.0,5.01,000.00,027.8,024.5,000.0,036.0,029.1,28.9,0002.3,0032.92,0016.72,0015.04
2023-09-06 20:59:00,SystemResetWarning,0832.0,5.01,000.00,027.7,024.4,000.0,036.0,029.1,28.8,0002.3,0032.48,0016.69,0015.11
